カタログに戻る

STARLINK-1582

運用中通信VLEO
NORAD 46043·PAYLOAD·🇺🇸 United States

打ち上げ Aug 7, 2020 から Cape Canaveral Space Force Station

Loading…

次のパス (今後24時間)

TLE

最新Source: CelesTrak SupGP

元期: Sep 14, 2026, 20:07 UTC

1 46043C 20055S   26257.83868056 -.00030346  00000+0 -97600-3 0  2574
2 46043  53.1577 326.4633 0001183  72.2830 338.9417 15.31712496    14

AllMySatでSTARLINK-1582をリアルタイム追跡

Download on the App Store